Location: Minneapolis
(45.0000°N, 93.0000°W)
Time: 21:42:10

Envisat - Pass Details

Date: 12 March 2018
Orbit: 764 x 766 km, 98.2° (Epoch: 23 March)

Event Time Altitude Azimuth Distance (km) Brightness Sun altitude
Rises 22:09:33 0° 219° (SW) 3,219 6.3 -30.6°
Reaches altitude 10° 22:13:22 10° 249° (WSW) 2,299 5.9 -31.2°
Maximum altitude 22:15:25 12° 273° (W) 2,143 6.0 -31.5°
Drops below altitude 10° 22:17:28 10° 297° (WNW) 2,306 6.3 -31.8°
Sets 22:21:20 0° 327° (NNW) 3,239 7.2 -32.4°
